Simultaneous Nadir Overpasses (SNOs) Predictions

Prediction of SNOs between NPP and TERRA Satellite Orbit:

Table of predicted SNOs for the next 14.0 days since TLE Epoch: 10/10/2015
Index Date (NPP) Time (NPP) Lat,Lon (NPP) SZA (NPP ) Date (TERRA) Time (TERRA) Lat,Lon (TERRA) SZA (TERRA ) Distance(km) Time Diff (sec)
1 10/12/2015 16:43:59 -69.16, 107.47 103.49 10/12/2015 16:45:10 -69.03, 108.31 103.61 36.43 71
2 10/12/2015 17:34:36 68.65, -84.54 76.03 10/12/2015 17:34:42 68.64, -84.53 76.02 1.21 6
3 10/12/2015 18:25:17 -68.53, 82.95 104.09 10/12/2015 18:24:12 -68.54, 82.97 104.08 1.38 65
4 10/15/2015 09:00:44 -68.75,-136.20 102.90 10/15/2015 09:01:46 -68.73,-136.21 102.91 2.03 62
5 10/15/2015 09:51:28 68.62, 31.28 76.99 10/15/2015 09:51:13 68.62, 31.30 76.99 1.03 15
6 10/15/2015 10:42:01 -68.06,-160.68 103.55 10/15/2015 10:40:50 -68.12,-161.66 103.50 41.16 71
7 10/18/2015 01:17:37 -68.71, -20.38 101.95 10/18/2015 01:18:18 -68.69, -20.38 101.96 1.51 41
8 10/18/2015 02:08:21 68.58, 147.09 77.95 10/18/2015 02:07:45 68.58, 147.12 77.94 1.52 36
9 10/20/2015 16:44:01 69.45, -72.96 79.75 10/20/2015 16:45:09 69.36, -71.29 79.68 66.29 68
10 10/20/2015 17:34:30 -68.67, 95.43 101.02 10/20/2015 17:34:50 -68.65, 95.43 101.04 2.57 20
11 10/20/2015 18:25:14 68.55, -97.10 78.89 10/20/2015 18:24:17 68.53, -97.07 78.86 2.72 57
12 10/23/2015 09:00:41 68.73, 43.80 79.99 10/23/2015 09:01:51 68.74, 43.79 80.00 1.60 70
13 10/23/2015 09:51:23 -68.64,-148.76
